Home > Weather > Linares > Past weeks

Flag for Spain Past Weather in Linares, Spain — Yesterday and Last 2 Weeks

Now
66 °F

Mild.


Feels Like: 66 °F
Forecast: 60 / 92 °F
Wind: No wind

Location: Granada / Aeropuerto

Current Time: Jun 25, 2016 at 5:39:31 AM

Latest Report: Jun 25, 2016 at 5:00 AM


Visibility: N/A

Pressure: 30.04 "Hg

Humidity: 56%

Dew Point: 50 °F

Location of LinaresLocation

Past Weather in Linares — Graph

°F

Linares Temperature Yesterday

Maximum temperature yesterday: 100 °F (at 3:00 PM)
Minimum temperature yesterday: 61 °F (at 6:00 AM)
Average temperature yesterday: 81 °F

High & Low Weather Summary for the Past Weeks

 TemperatureHumidityPressure
High100 °F (Jun 24, 3:00 PM)82% (Jun 17, 6:00 AM)30.30 "Hg (Jun 17, 6:00 AM)
Low50 °F (Jun 17, 7:30 AM)9% (Jun 24, 3:30 PM)29.77 "Hg (Jun 15, 7:30 PM)
Average78 °F34%30.05 "Hg
* Reported Jun 10 6:00 AM — Jun 25 4:30 AM, Linares, Weather by CustomWeather, © 2016

Note: Actual official high and low records may vary slightly from our data, if they occured in-between our weather recording intervals... More about our weather records

Advertising

Linares Weather History for the Previous 24 Hours

Scroll right to see more
 ConditionsComfort  
Time TempWeatherWind HumidityBarometerVisibility
4:30 AM
Sat, Jun 25
68 °FMild.1 mph53%30.04 "HgN/A
4:00 AM70 °FMild.No wind53%30.04 "HgN/A
3:30 AM68 °FMild.1 mph56%30.04 "HgN/A
3:00 AM70 °FMild.1 mph57%30.04 "HgN/A
2:30 AM73 °FMild.7 mph47%30.07 "HgN/A
2:00 AM75 °FMild.1 mph44%30.07 "HgN/A
1:30 AM75 °FMild.3 mph44%30.07 "HgN/A
1:00 AM77 °FPleasantly warm.2 mph39%30.07 "HgN/A
12:30 AM81 °FPleasantly warm.6 mph37%30.07 "HgN/A
12:00 AM81 °FPleasantly warm.3 mph34%30.07 "HgN/A
11:30 PM
Fri, Jun 24
82 °FClear.8 mph32%30.07 "Hg10 mi
11:00 PM84 °FClear.8 mph25%30.07 "Hg10 mi
10:30 PM86 °FPassing clouds.6 mph22%30.04 "HgN/A
10:00 PM88 °FSunny.7 mph21%30.04 "Hg10 mi
9:30 PM90 °FSunny.6 mph18%30.04 "Hg10 mi
9:00 PM93 °FPassing clouds.7 mph15%30.04 "HgN/A
8:30 PM95 °FPassing clouds.9 mph13%30.04 "HgN/A
8:00 PM95 °FPassing clouds.12 mph13%30.04 "HgN/A
7:30 PM97 °FPassing clouds.15 mph13%30.04 "HgN/A
7:00 PM99 °FPassing clouds.12 mph13%30.04 "HgN/A
6:30 PM99 °FPassing clouds.14 mph12%30.04 "HgN/A
6:00 PM99 °FPassing clouds.12 mph12%30.04 "HgN/A
5:30 PM100 °FPassing clouds.10 mph10%30.04 "HgN/A
5:00 PM100 °FPassing clouds.12 mph10%30.04 "HgN/A
4:30 PM99 °FPassing clouds.12 mph9%30.04 "HgN/A
4:00 PM100 °FPassing clouds.10 mph9%30.07 "HgN/A
3:30 PM100 °FSunny.16 mph9%30.07 "Hg10 mi
3:00 PM100 °FPassing clouds.15 mph10%30.07 "HgN/A
2:30 PM97 °FPassing clouds.9 mph13%30.07 "HgN/A
2:00 PM95 °FPassing clouds.9 mph14%30.09 "HgN/A
1:30 PM93 °FPassing clouds.10 mph19%30.09 "HgN/A
1:00 PM93 °FPassing clouds.6 mph19%30.09 "HgN/A
12:30 PM90 °FPassing clouds.5 mph21%30.09 "HgN/A
12:00 PM86 °FSunny.2 mph27%30.12 "Hg10 mi
11:30 AM84 °FSunny.2 mph27%30.12 "Hg10 mi
11:00 AM82 °FSunny.1 mph28%30.12 "Hg10 mi
10:30 AM79 °FSunny.No wind32%30.12 "Hg10 mi
10:00 AM75 °FSunny.1 mph36%30.15 "Hg10 mi
9:30 AM72 °FSunny.No wind44%30.15 "Hg10 mi
9:00 AM68 °FSunny.2 mph53%30.15 "Hg10 mi
8:30 AM66 °FSunny.2 mph49%30.15 "Hg10 mi
8:00 AM63 °FSunny.No wind56%30.15 "Hg10 mi
7:30 AM61 °FClear.No wind55%30.15 "Hg10 mi
7:00 AM61 °FClear.1 mph55%30.15 "Hg10 mi
6:30 AM61 °FClear.2 mph59%30.15 "Hg10 mi
6:00 AM61 °FClear.1 mph59%30.15 "Hg10 mi
5:30 AM63 °FMild.1 mph52%30.15 "HgN/A
5:00 AM63 °FMild.No wind56%30.15 "HgN/A
Weather by CustomWeather, © 2016

See weather overviewHow to use our weather pages